TimeMST,TemperatureF,Dew PointF,Humidity,Sea Level PressureIn,VisibilityMPH,Wind Direction,Wind SpeedMPH,Gust SpeedMPH,PrecipitationIn,Events,Conditions,WindDirDegrees,DateUTC
12:53 AM,28.0,23.0,81,29.46,10.0,WSW,4.6,-,N/A,,Clear,240,2013-11-17 07:53:00
1:53 AM,28.0,23.0,81,29.47,10.0,WSW,6.9,-,N/A,,Partly Cloudy,240,2013-11-17 08:53:00
2:53 AM,30.0,23.0,75,29.47,10.0,West,9.2,-,N/A,,Clear,260,2013-11-17 09:53:00
3:53 AM,34.0,24.1,67,29.49,10.0,West,10.4,-,N/A,,Clear,270,2013-11-17 10:53:00
4:53 AM,36.0,24.1,62,29.55,10.0,West,23.0,31.1,N/A,,Clear,270,2013-11-17 11:53:00
5:53 AM,36.0,28.0,73,29.61,10.0,WNW,27.6,38.0,N/A,,Clear,290,2013-11-17 12:53:00
6:53 AM,34.0,28.0,79,29.71,10.0,WNW,24.2,38.0,N/A,,Overcast,290,2013-11-17 13:53:00
7:53 AM,35.1,26.1,70,29.79,10.0,WNW,20.7,34.5,N/A,,Partly Cloudy,290,2013-11-17 14:53:00
8:53 AM,37.0,26.1,65,29.86,10.0,West,20.7,26.5,N/A,,Overcast,280,2013-11-17 15:53:00
9:53 AM,39.9,24.1,53,29.91,10.0,NW,27.6,40.3,N/A,,Scattered Clouds,310,2013-11-17 16:53:00
10:53 AM,43.0,24.1,47,29.92,10.0,NW,21.9,29.9,N/A,,Clear,310,2013-11-17 17:53:00
11:53 AM,45.0,21.9,40,29.94,10.0,NW,19.6,28.8,N/A,,Clear,310,2013-11-17 18:53:00
12:53 PM,46.0,18.0,33,29.94,10.0,WNW,18.4,33.4,N/A,,Partly Cloudy,300,2013-11-17 19:53:00
1:53 PM,44.1,16.0,32,29.97,10.0,NW,12.7,-,N/A,,Partly Cloudy,320,2013-11-17 20:53:00
2:53 PM,46.9,16.0,29,29.96,10.0,WNW,13.8,-,N/A,,Clear,300,2013-11-17 21:53:00
3:53 PM,45.0,12.9,27,29.98,10.0,NW,9.2,-,N/A,,Clear,310,2013-11-17 22:53:00
4:53 PM,37.9,12.9,36,30.02,10.0,WNW,8.1,-,N/A,,Clear,300,2013-11-17 23:53:00
5:53 PM,32.0,14.0,48,30.07,10.0,SW,5.8,-,N/A,,Clear,230,2013-11-18 00:53:00
6:53 PM,26.1,14.0,60,30.10,10.0,SW,4.6,-,N/A,,Clear,220,2013-11-18 01:53:00
7:53 PM,26.1,14.0,60,30.11,10.0,Calm,Calm,-,N/A,,Clear,0,2013-11-18 02:53:00
8:53 PM,23.0,14.0,68,30.13,10.0,Calm,Calm,-,N/A,,Clear,0,2013-11-18 03:53:00
9:53 PM,23.0,15.1,72,30.14,10.0,WSW,5.8,-,N/A,,Clear,250,2013-11-18 04:53:00
10:53 PM,21.9,15.1,75,30.14,10.0,WSW,6.9,-,N/A,,Clear,240,2013-11-18 05:53:00
11:53 PM,23.0,16.0,74,30.14,10.0,WSW,9.2,-,N/A,,Clear,250,2013-11-18 06:53:00